GFSNIL_prec_precacc_231.txt.gz
Total_Precipitation_Accumulation
2.62 2.13 1.92 1.62 1.55 1.45 1.36 1.45 1.26 1.11 1.34 1.41 1.13 0.87 0.86 0.75 0.58 0.65 0.66 0.70 0.77 0.77
2.82 2.55 2.31 1.88 1.42 1.23 1.18 1.06 1.03 0.89 0.83 0.82 0.74 0.81 0.85 0.83 0.73 0.63 0.62 0.69 0.78 0.83
1.77 1.77 1.53 1.31 1.28 1.15 1.09 1.08 1.03 0.85 0.71 0.53 0.43 0.47 0.51 0.56 0.63 0.73 0.67 0.63 0.71 0.74
1.11 1.59 1.17 1.02 0.88 0.82 0.88 0.84 0.69 0.77 0.88 0.71 0.55 0.54 0.54 0.54 0.58 0.70 0.69 0.67 0.71 0.72
1.03 1.66 1.54 1.14 0.84 0.71 0.74 0.79 0.60 0.45 0.49 0.65 0.70 0.70 0.70 0.86 0.80 0.69 0.74 0.80 0.87 0.82
1.05 1.26 1.56 1.32 1.07 0.64 0.53 0.54 0.47 0.43 0.39 0.37 0.42 0.53 0.68 0.72 0.72 0.76 0.77 0.69 0.68 0.73
0.80 0.72 0.92 1.11 1.16 1.13 0.65 0.58 0.49 0.46 0.47 0.41 0.26 0.28 0.29 0.28 0.36 0.41 0.47 0.49 0.47 0.50
0.89 0.82 0.70 0.94 1.07 1.19 1.01 0.63 0.71 0.53 0.33 0.36 0.30 0.36 0.29 0.21 0.26 0.37 0.48 0.56 0.54 0.51
0.85 0.79 0.73 0.63 0.67 0.97 1.17 0.89 0.68 0.78 0.55 0.35 0.37 0.60 0.41 0.37 0.38 0.38 0.37 0.36 0.32 0.31
1.06 0.84 0.79 0.83 0.75 0.74 0.88 1.16 1.19 0.99 0.96 1.05 1.03 1.04 0.83 0.64 0.48 0.45 0.38 0.33 0.30 0.23
1.15 1.23 1.01 1.12 1.41 1.46 1.37 1.51 1.43 1.29 1.27 1.24 1.13 0.97 0.71 0.57 0.41 0.34 0.32 0.27 0.15 0.07
1.65 1.78 1.92 1.73 1.62 1.80 1.54 1.44 1.29 1.11 0.97 0.87 0.77 0.57 0.38 0.25 0.21 0.18 0.13 0.08 0.04 0.05
1.52 1.73 1.83 1.85 1.78 1.59 1.30 1.30 1.07 0.95 0.87 0.70 0.52 0.47 0.32 0.23 0.17 0.14 0.10 0.07 0.05 0.06
1.34 1.29 1.22 1.28 1.30 1.23 1.07 0.93 0.84 0.72 0.66 0.54 0.40 0.35 0.28 0.22 0.19 0.18 0.16 0.13 0.09 0.05

GFSNIL_prec_precacc_234.txt.gz
Total_Precipitation_Accumulation
2.62 2.14 1.92 1.63 1.56 1.46 1.39 1.48 1.27 1.14 1.42 1.49 1.18 0.91 0.87 0.75 0.58 0.65 0.66 0.70 0.77 0.77
2.82 2.56 2.33 1.89 1.45 1.29 1.29 1.17 1.10 0.96 0.90 0.87 0.78 0.82 0.85 0.83 0.73 0.63 0.62 0.69 0.78 0.83
1.78 1.78 1.58 1.40 1.42 1.31 1.25 1.25 1.20 0.96 0.80 0.59 0.46 0.48 0.51 0.56 0.63 0.73 0.67 0.63 0.71 0.74
1.13 1.66 1.27 1.06 0.96 1.05 1.16 1.06 0.85 0.88 0.96 0.78 0.59 0.55 0.54 0.54 0.58 0.70 0.69 0.67 0.71 0.72
1.10 1.82 1.78 1.44 1.05 0.92 1.09 1.07 0.80 0.57 0.56 0.69 0.73 0.72 0.70 0.86 0.80 0.69 0.74 0.80 0.87 0.82
1.07 1.38 1.75 1.62 1.42 0.85 0.81 0.93 0.74 0.57 0.45 0.40 0.44 0.54 0.68 0.72 0.72 0.76 0.77 0.69 0.68 0.73
0.81 0.74 1.02 1.43 1.46 1.41 0.87 0.88 0.78 0.59 0.54 0.43 0.27 0.28 0.29 0.28 0.36 0.41 0.47 0.49 0.47 0.50
0.89 0.83 0.73 1.02 1.27 1.45 1.23 0.83 0.96 0.71 0.42 0.39 0.33 0.38 0.29 0.21 0.26 0.37 0.48 0.56 0.54 0.51
0.85 0.79 0.73 0.65 0.74 1.07 1.33 1.06 0.93 1.09 0.77 0.45 0.42 0.66 0.45 0.37 0.38 0.38 0.37 0.36 0.32 0.31
1.06 0.84 0.79 0.83 0.76 0.80 0.97 1.28 1.44 1.29 1.25 1.31 1.19 1.17 0.95 0.68 0.48 0.45 0.38 0.33 0.30 0.23
1.15 1.23 1.01 1.12 1.41 1.49 1.42 1.57 1.58 1.48 1.44 1.45 1.37 1.21 0.88 0.65 0.42 0.34 0.32 0.27 0.15 0.07
1.65 1.78 1.92 1.73 1.62 1.81 1.57 1.49 1.36 1.19 1.07 0.99 0.92 0.79 0.61 0.40 0.29 0.21 0.15 0.09 0.04 0.05
1.52 1.73 1.83 1.85 1.79 1.61 1.32 1.33 1.12 1.00 0.93 0.80 0.65 0.65 0.43 0.31 0.21 0.18 0.15 0.10 0.06 0.06
1.34 1.29 1.22 1.28 1.30 1.24 1.10 0.94 0.90 0.82 0.78 0.60 0.53 0.50 0.40 0.32 0.25 0.19 0.17 0.16 0.12 0.06

GFSNIL_prec_precacc_237.txt.gz
Total_Precipitation_Accumulation
2.63 2.14 1.92 1.63 1.56 1.46 1.39 1.48 1.27 1.14 1.42 1.49 1.18 0.92 0.88 0.77 0.60 0.66 0.66 0.70 0.77 0.77
2.83 2.57 2.33 1.89 1.46 1.29 1.29 1.17 1.10 0.96 0.91 0.88 0.78 0.83 0.86 0.84 0.74 0.63 0.62 0.69 0.78 0.83
1.79 1.79 1.58 1.41 1.42 1.31 1.26 1.26 1.22 0.99 0.86 0.66 0.51 0.54 0.54 0.57 0.64 0.74 0.67 0.63 0.71 0.74
1.13 1.67 1.27 1.06 0.97 1.06 1.20 1.14 0.95 1.00 1.08 0.89 0.72 0.67 0.68 0.61 0.61 0.72 0.70 0.67 0.71 0.72
1.10 1.82 1.78 1.45 1.07 0.95 1.15 1.16 0.92 0.76 0.77 0.89 0.90 0.86 0.85 0.98 0.85 0.70 0.74 0.80 0.87 0.82
1.07 1.38 1.76 1.63 1.45 0.94 0.92 1.05 0.90 0.78 0.67 0.61 0.64 0.75 0.84 0.83 0.76 0.77 0.78 0.69 0.68 0.73
0.81 0.74 1.02 1.44 1.50 1.47 0.94 0.99 0.94 0.77 0.73 0.62 0.45 0.47 0.48 0.42 0.44 0.45 0.49 0.49 0.48 0.50
0.89 0.83 0.73 1.02 1.28 1.51 1.30 0.99 1.19 0.97 0.67 0.61 0.51 0.54 0.46 0.34 0.34 0.39 0.48 0.56 0.54 0.51
0.85 0.79 0.73 0.65 0.74 1.09 1.38 1.16 1.08 1.35 1.03 0.65 0.61 0.83 0.59 0.47 0.44 0.40 0.37 0.36 0.32 0.31
1.06 0.84 0.79 0.83 0.76 0.81 1.01 1.40 1.63 1.52 1.50 1.53 1.36 1.32 1.06 0.78 0.53 0.46 0.38 0.33 0.30 0.23
1.15 1.23 1.01 1.12 1.41 1.49 1.43 1.61 1.68 1.62 1.61 1.70 1.57 1.37 1.03 0.80 0.50 0.35 0.32 0.27 0.15 0.07
1.65 1.78 1.92 1.73 1.62 1.81 1.57 1.50 1.40 1.31 1.27 1.13 1.08 1.00 0.76 0.56 0.47 0.29 0.16 0.09 0.04 0.05
1.52 1.73 1.83 1.85 1.79 1.61 1.32 1.34 1.13 1.06 1.04 0.99 0.84 0.93 0.62 0.44 0.37 0.33 0.23 0.11 0.06 0.06
1.34 1.29 1.22 1.28 1.30 1.24 1.10 0.95 0.92 0.85 0.82 0.73 0.72 0.64 0.61 0.51 0.39 0.31 0.24 0.21 0.16 0.08

GFSNIL_prec_precacc_240.txt.gz
Total_Precipitation_Accumulation
2.64 2.14 1.93 1.63 1.56 1.46 1.39 1.48 1.27 1.14 1.42 1.49 1.19 0.94 0.90 0.78 0.61 0.67 0.66 0.71 0.78 0.78
2.83 2.58 2.34 1.89 1.46 1.30 1.29 1.17 1.10 0.96 0.91 0.88 0.78 0.84 0.88 0.85 0.74 0.64 0.62 0.69 0.78 0.83
1.79 1.80 1.59 1.41 1.43 1.32 1.26 1.26 1.22 0.99 0.86 0.66 0.51 0.54 0.55 0.59 0.65 0.75 0.68 0.63 0.71 0.74
1.13 1.67 1.28 1.07 0.98 1.07 1.21 1.14 0.95 1.00 1.08 0.89 0.72 0.68 0.70 0.63 0.63 0.75 0.73 0.68 0.71 0.72
1.10 1.82 1.78 1.46 1.11 0.99 1.17 1.16 0.92 0.76 0.77 0.89 0.90 0.87 0.90 1.06 0.93 0.75 0.80 0.86 0.89 0.83
1.07 1.38 1.76 1.64 1.47 0.94 0.92 1.05 0.91 0.79 0.68 0.63 0.67 0.77 0.86 0.88 0.86 0.87 0.84 0.75 0.74 0.76
0.81 0.74 1.02 1.44 1.50 1.47 0.95 1.00 0.94 0.78 0.75 0.66 0.49 0.52 0.54 0.49 0.55 0.61 0.64 0.61 0.55 0.57
0.89 0.83 0.73 1.02 1.28 1.51 1.32 1.01 1.21 1.00 0.70 0.65 0.57 0.61 0.53 0.46 0.49 0.56 0.69 0.75 0.68 0.61
0.85 0.79 0.73 0.65 0.74 1.09 1.40 1.21 1.13 1.37 1.06 0.71 0.69 0.94 0.69 0.59 0.61 0.59 0.54 0.54 0.49 0.43
1.06 0.84 0.79 0.83 0.76 0.81 1.01 1.41 1.65 1.58 1.53 1.56 1.44 1.47 1.25 0.94 0.70 0.65 0.56 0.49 0.43 0.31
1.15 1.23 1.01 1.12 1.41 1.49 1.43 1.61 1.70 1.69 1.64 1.72 1.62 1.46 1.18 0.97 0.63 0.47 0.44 0.39 0.25 0.14
1.65 1.78 1.92 1.73 1.62 1.81 1.57 1.50 1.41 1.35 1.32 1.15 1.11 1.07 0.88 0.72 0.57 0.39 0.21 0.13 0.10 0.09
1.52 1.73 1.83 1.85 1.79 1.61 1.32 1.34 1.13 1.06 1.06 1.04 0.87 0.98 0.67 0.52 0.45 0.44 0.34 0.16 0.08 0.07
1.34 1.29 1.22 1.28 1.30 1.24 1.10 0.95 0.92 0.85 0.83 0.79 0.78 0.71 0.66 0.57 0.44 0.38 0.39 0.38 0.24 0.10

GFSNIL_prec_precacc_243.txt.gz
Total_Precipitation_Accumulation
2.64 2.15 1.93 1.63 1.56 1.46 1.39 1.48 1.27 1.14 1.42 1.50 1.21 0.98 0.91 0.80 0.62 0.67 0.67 0.71 0.78 0.78
2.83 2.58 2.34 1.89 1.46 1.30 1.29 1.17 1.10 0.96 0.91 0.88 0.79 0.87 0.89 0.85 0.75 0.64 0.62 0.70 0.78 0.83
1.79 1.80 1.59 1.41 1.44 1.32 1.26 1.26 1.22 0.99 0.86 0.66 0.51 0.54 0.56 0.60 0.66 0.75 0.68 0.64 0.71 0.74
1.13 1.67 1.28 1.07 0.98 1.08 1.22 1.15 0.96 1.00 1.08 0.89 0.72 0.68 0.70 0.63 0.65 0.76 0.73 0.69 0.72 0.73
1.10 1.82 1.78 1.46 1.11 0.99 1.17 1.17 0.93 0.77 0.77 0.89 0.90 0.87 0.90 1.06 0.93 0.75 0.81 0.86 0.90 0.84
1.07 1.38 1.76 1.64 1.47 0.94 0.93 1.06 0.91 0.80 0.69 0.63 0.67 0.77 0.86 0.88 0.86 0.87 0.85 0.76 0.75 0.78
0.81 0.74 1.02 1.44 1.50 1.47 0.95 1.00 0.94 0.78 0.76 0.66 0.49 0.53 0.55 0.51 0.56 0.62 0.64 0.61 0.56 0.58
0.90 0.83 0.73 1.02 1.28 1.51 1.32 1.01 1.21 1.00 0.70 0.65 0.57 0.61 0.54 0.47 0.51 0.59 0.73 0.78 0.71 0.66
0.85 0.79 0.73 0.65 0.74 1.09 1.40 1.21 1.14 1.38 1.07 0.72 0.69 0.98 0.72 0.61 0.64 0.63 0.60 0.60 0.55 0.50
1.06 0.84 0.79 0.83 0.76 0.81 1.01 1.41 1.65 1.58 1.55 1.57 1.44 1.50 1.29 1.00 0.75 0.69 0.61 0.54 0.50 0.40
1.15 1.23 1.01 1.12 1.41 1.49 1.43 1.61 1.70 1.69 1.64 1.73 1.63 1.47 1.19 1.00 0.68 0.51 0.47 0.44 0.33 0.24
1.65 1.78 1.92 1.73 1.62 1.81 1.57 1.50 1.41 1.35 1.32 1.16 1.12 1.10 0.90 0.73 0.59 0.44 0.27 0.19 0.18 0.22
1.52 1.73 1.83 1.85 1.79 1.61 1.32 1.34 1.13 1.06 1.06 1.05 0.87 0.99 0.68 0.54 0.48 0.50 0.41 0.23 0.17 0.21
1.34 1.29 1.22 1.28 1.30 1.24 1.10 0.95 0.92 0.85 0.83 0.79 0.79 0.72 0.67 0.61 0.47 0.42 0.45 0.43 0.28 0.16

GFSNIL_prec_precacc_246.txt.gz
Total_Precipitation_Accumulation
2.65 2.15 1.93 1.63 1.56 1.46 1.39 1.48 1.27 1.14 1.42 1.51 1.22 1.00 0.94 0.82 0.63 0.68 0.68 0.71 0.78 0.78
2.84 2.58 2.34 1.89 1.46 1.30 1.29 1.17 1.10 0.96 0.91 0.88 0.79 0.88 0.92 0.87 0.76 0.65 0.63 0.70 0.78 0.84
1.79 1.80 1.59 1.41 1.44 1.32 1.27 1.26 1.22 1.00 0.86 0.66 0.51 0.54 0.57 0.62 0.67 0.76 0.69 0.65 0.73 0.74
1.13 1.67 1.28 1.07 0.98 1.08 1.23 1.16 0.97 1.01 1.09 0.89 0.72 0.68 0.70 0.64 0.65 0.77 0.74 0.70 0.73 0.75
1.10 1.82 1.78 1.46 1.11 0.99 1.17 1.17 0.94 0.78 0.78 0.90 0.91 0.87 0.90 1.06 0.94 0.76 0.81 0.87 0.91 0.85
1.07 1.38 1.76 1.64 1.47 0.94 0.93 1.06 0.91 0.81 0.72 0.66 0.68 0.78 0.87 0.89 0.86 0.87 0.85 0.76 0.75 0.78
0.81 0.74 1.02 1.44 1.50 1.47 0.95 1.00 0.94 0.78 0.76 0.68 0.51 0.54 0.56 0.52 0.57 0.63 0.65 0.61 0.56 0.58
0.90 0.83 0.73 1.02 1.28 1.51 1.32 1.01 1.21 1.00 0.70 0.66 0.60 0.63 0.54 0.47 0.51 0.59 0.74 0.80 0.73 0.66
0.85 0.79 0.73 0.65 0.74 1.09 1.40 1.21 1.14 1.38 1.07 0.72 0.70 1.01 0.74 0.62 0.64 0.63 0.60 0.60 0.56 0.51
1.06 0.84 0.79 0.83 0.76 0.81 1.01 1.41 1.65 1.58 1.55 1.57 1.44 1.51 1.29 1.01 0.75 0.69 0.61 0.55 0.51 0.41
1.15 1.23 1.01 1.12 1.41 1.49 1.43 1.61 1.70 1.69 1.64 1.73 1.63 1.48 1.19 1.00 0.68 0.51 0.47 0.44 0.34 0.26
1.65 1.78 1.92 1.73 1.62 1.81 1.57 1.50 1.41 1.35 1.32 1.16 1.12 1.10 0.90 0.74 0.59 0.44 0.27 0.19 0.19 0.23
1.52 1.73 1.83 1.85 1.79 1.61 1.32 1.34 1.13 1.06 1.06 1.05 0.87 0.99 0.69 0.55 0.48 0.50 0.41 0.23 0.17 0.23
1.34 1.29 1.22 1.28 1.30 1.24 1.10 0.95 0.92 0.85 0.83 0.79 0.79 0.72 0.67 0.61 0.47 0.43 0.45 0.44 0.30 0.18

GFSNIL_prec_precacc_249.txt.gz
Total_Precipitation_Accumulation
2.74 2.23 2.00 1.65 1.58 1.47 1.40 1.48 1.28 1.15 1.45 1.55 1.26 1.03 0.96 0.83 0.65 0.70 0.70 0.73 0.79 0.79
2.90 2.66 2.41 1.93 1.47 1.31 1.29 1.17 1.10 0.96 0.91 0.91 0.83 0.94 0.95 0.90 0.77 0.66 0.64 0.72 0.80 0.85
1.83 1.85 1.66 1.44 1.44 1.32 1.27 1.26 1.22 1.00 0.86 0.67 0.54 0.60 0.62 0.65 0.70 0.78 0.70 0.66 0.74 0.75
1.19 1.70 1.30 1.09 0.98 1.08 1.23 1.16 0.97 1.01 1.09 0.89 0.72 0.68 0.71 0.66 0.67 0.79 0.76 0.71 0.75 0.76
1.17 1.84 1.79 1.47 1.11 0.99 1.17 1.17 0.94 0.78 0.78 0.90 0.91 0.88 0.91 1.07 0.95 0.78 0.83 0.88 0.92 0.86
1.11 1.39 1.77 1.64 1.47 0.94 0.93 1.06 0.92 0.82 0.72 0.67 0.69 0.79 0.88 0.89 0.87 0.88 0.86 0.77 0.76 0.79
0.87 0.78 1.03 1.45 1.50 1.47 0.95 1.00 0.94 0.78 0.77 0.69 0.53 0.57 0.58 0.53 0.58 0.63 0.65 0.62 0.57 0.59
0.91 0.85 0.74 1.03 1.29 1.51 1.32 1.01 1.21 1.00 0.70 0.66 0.60 0.65 0.58 0.49 0.53 0.60 0.74 0.80 0.73 0.67
0.85 0.79 0.73 0.65 0.75 1.09 1.40 1.21 1.14 1.38 1.07 0.72 0.70 1.02 0.77 0.65 0.64 0.63 0.60 0.61 0.56 0.52
1.06 0.84 0.79 0.83 0.76 0.81 1.01 1.41 1.65 1.58 1.55 1.57 1.44 1.51 1.29 1.01 0.75 0.70 0.61 0.55 0.51 0.41
1.15 1.23 1.01 1.12 1.41 1.49 1.43 1.61 1.70 1.69 1.64 1.73 1.63 1.48 1.19 1.01 0.68 0.51 0.47 0.44 0.34 0.26
1.65 1.78 1.92 1.73 1.62 1.81 1.57 1.50 1.41 1.35 1.32 1.16 1.12 1.10 0.90 0.74 0.59 0.44 0.27 0.19 0.19 0.23
1.52 1.73 1.83 1.85 1.79 1.61 1.32 1.34 1.13 1.06 1.06 1.05 0.87 0.99 0.69 0.55 0.48 0.50 0.41 0.23 0.17 0.24
1.34 1.29 1.22 1.28 1.30 1.24 1.10 0.95 0.92 0.85 0.83 0.79 0.79 0.72 0.67 0.61 0.47 0.43 0.45 0.44 0.30 0.18

GFSNIL_prec_precacc_255.txt.gz
Total_Precipitation_Accumulation
2.92 2.39 2.17 1.82 1.75 1.61 1.51 1.57 1.37 1.20 1.49 1.59 1.31 1.09 1.03 0.91 0.72 0.77 0.79 0.80 0.91 1.00
3.06 2.92 2.63 2.12 1.65 1.50 1.44 1.30 1.22 1.06 0.97 0.96 0.90 1.01 1.00 0.93 0.81 0.70 0.69 0.78 0.90 0.93
2.04 2.03 2.00 1.76 1.70 1.51 1.41 1.39 1.32 1.07 0.89 0.69 0.58 0.64 0.67 0.69 0.72 0.80 0.72 0.68 0.77 0.82
1.43 1.96 1.50 1.63 1.36 1.43 1.49 1.32 1.09 1.10 1.13 0.91 0.74 0.70 0.75 0.70 0.72 0.83 0.79 0.73 0.76 0.77
1.55 2.15 2.08 1.71 1.69 1.49 1.56 1.48 1.08 0.89 0.85 0.93 0.91 0.89 0.92 1.09 0.97 0.80 0.86 0.90 0.93 0.87
1.61 1.78 2.06 1.88 1.76 1.57 1.44 1.41 1.20 0.97 0.80 0.70 0.70 0.80 0.88 0.90 0.88 0.90 0.88 0.79 0.78 0.80
1.31 1.25 1.34 1.72 1.70 1.73 1.47 1.40 1.18 1.06 0.89 0.73 0.54 0.57 0.59 0.53 0.58 0.63 0.66 0.64 0.59 0.60
0.97 1.15 1.12 1.29 1.52 1.64 1.46 1.39 1.47 1.20 0.88 0.72 0.62 0.67 0.59 0.50 0.54 0.61 0.74 0.80 0.73 0.67
0.86 0.82 0.88 0.88 1.02 1.28 1.51 1.34 1.31 1.46 1.14 0.78 0.72 1.05 0.79 0.66 0.65 0.65 0.61 0.61 0.56 0.52
1.06 0.84 0.80 0.87 0.88 1.07 1.21 1.49 1.74 1.66 1.58 1.59 1.45 1.52 1.30 1.02 0.76 0.71 0.62 0.56 0.51 0.41
1.15 1.23 1.01 1.13 1.43 1.54 1.59 1.78 1.77 1.73 1.66 1.75 1.63 1.48 1.19 1.01 0.68 0.51 0.47 0.45 0.35 0.26
1.65 1.78 1.92 1.73 1.63 1.81 1.58 1.54 1.49 1.39 1.33 1.17 1.12 1.10 0.90 0.74 0.59 0.44 0.27 0.19 0.19 0.24
1.52 1.73 1.83 1.85 1.79 1.61 1.32 1.34 1.14 1.07 1.07 1.05 0.87 0.99 0.69 0.55 0.48 0.50 0.41 0.23 0.17 0.24
1.34 1.29 1.22 1.28 1.30 1.24 1.10 0.95 0.92 0.85 0.83 0.79 0.79 0.72 0.68 0.62 0.47 0.43 0.45 0.44 0.30 0.18